Weather History for KPWT - April, 2014

Change the Weather History Date:

Wednesday, April 16, 2014

  Actual Average Record
Temperature  
Mean Temperature 48 °F -  
Max Temperature 50 °F 54 °F 80 °F (1999)
Min Temperature 46 °F 37 °F 28 °F (2009)
Degree Days  
Heating Degree Days 17    
Moisture  
Dew Point 47 °F    
Average Humidity 97    
Maximum Humidity 100    
Minimum Humidity 93    
Precipitation  
Precipitation 0.14 in - - ()
Sea Level Pressure  
Sea Level Pressure 30.05 in    
Wind  
Wind Speed 12 mph (South)    
Max Wind Speed 16 mph    
Max Gust Speed 24 mph    
Visibility 9 miles    
Events      
Averages and records for this station are not official NWS values.
T = Trace of Precipitation, MM = Missing Value Source: NWS Daily Summary

Daily Weather History Graph

Daily Weather History Graph

Search for Another Location

Airport or City:

Trip Planner

Search our weather history database for the weather conditions in past years. The results will help you decide how hot, cold, wet, or windy it might be!

Date:

Astronomy

Apr. 16, 2014 Rise Set
Actual Time 6:20 AM PDT 8:02 PM PDT
Civil Twilight 5:48 AM PDT 8:34 PM PDT
Nautical Twilight 5:08 AM PDT 9:14 PM PDT
Astronomical Twilight 4:25 AM PDT 9:57 PM PDT
Moon 9:58 PM PDT (4/16) 7:06 AM PDT (4/16)
Length of Visible Light 14h 46m
Length of Day
13h 41m
Full, 98% of the Moon is Illuminated
Apr 16
Full
Apr 22
Last Quarter
Apr 28
New
May 6
First Quarter
May 14
Full

Hourly Weather History & Observations

Time (PDT) Temp. Windchill Dew Point Humidity Pressure Visibility Wind Dir Wind Speed Gust Speed Precip Events Conditions
12:15 AM 46.4 °F 40.1 °F 46.4 °F 100% 30.10 in 10.0 mi South 15.0 mph - N/A   Overcast
12:35 AM 46.4 °F 40.4 °F 46.4 °F 100% 30.10 in 10.0 mi South 13.8 mph 18.4 mph N/A   Overcast
12:55 AM 46.4 °F 41.1 °F 46.4 °F 100% 30.10 in 10.0 mi South 11.5 mph - N/A   Overcast
1:15 AM 46.4 °F 39.8 °F 46.4 °F 100% 30.09 in 10.0 mi South 16.1 mph 24.2 mph N/A   Overcast
1:35 AM 46.4 °F 40.7 °F 46.4 °F 100% 30.09 in 10.0 mi South 12.7 mph - N/A   Mostly Cloudy
1:55 AM 46.4 °F 40.4 °F 44.6 °F 93% 30.09 in 10.0 mi South 13.8 mph 19.6 mph N/A   Mostly Cloudy
2:15 AM 46.4 °F 40.7 °F 44.6 °F 93% 30.07 in 10.0 mi South 12.7 mph 17.3 mph N/A   Overcast
2:35 AM 46.4 °F 40.7 °F 44.6 °F 93% 30.08 in 10.0 mi South 12.7 mph 18.4 mph N/A   Overcast
2:55 AM 46.4 °F 40.7 °F 44.6 °F 93% 30.08 in 10.0 mi South 12.7 mph 21.9 mph N/A   Overcast
3:15 AM 46.4 °F 41.1 °F 44.6 °F 93% 30.07 in 10.0 mi South 11.5 mph 19.6 mph N/A   Overcast
3:35 AM 46.4 °F 41.5 °F 46.4 °F 100% 30.07 in 10.0 mi South 10.4 mph 17.3 mph N/A   Overcast
3:55 AM 46.4 °F 41.1 °F 44.6 °F 93% 30.08 in 10.0 mi South 11.5 mph 16.1 mph N/A   Overcast
4:15 AM 46.4 °F 41.1 °F 44.6 °F 93% 30.08 in 10.0 mi South 11.5 mph 18.4 mph N/A   Overcast
4:35 AM 46.4 °F 40.7 °F 44.6 °F 93% 30.07 in 10.0 mi South 12.7 mph 17.3 mph N/A   Overcast
4:55 AM 46.4 °F 41.5 °F 46.4 °F 100% 30.07 in 10.0 mi South 10.4 mph 17.3 mph N/A   Overcast
5:15 AM 46.4 °F 41.1 °F 46.4 °F 100% 30.08 in 10.0 mi South 11.5 mph 18.4 mph N/A   Overcast
5:35 AM 46.4 °F 41.9 °F 44.6 °F 93% 30.08 in 10.0 mi South 9.2 mph - N/A   Overcast
5:55 AM 46.4 °F 41.5 °F 44.6 °F 93% 30.07 in 10.0 mi South 10.4 mph 16.1 mph N/A   Overcast
6:15 AM 46.4 °F 40.4 °F 44.6 °F 93% 30.07 in 10.0 mi South 13.8 mph 19.6 mph N/A   Overcast
6:35 AM 46.4 °F 41.1 °F 44.6 °F 93% 30.08 in 10.0 mi South 11.5 mph 18.4 mph N/A   Overcast
6:55 AM 46.4 °F 41.1 °F 44.6 °F 93% 30.08 in 10.0 mi South 11.5 mph - N/A   Overcast
7:15 AM 46.4 °F 39.8 °F 44.6 °F 93% 30.07 in 9.0 mi South 16.1 mph 20.7 mph N/A   Overcast
7:35 AM 46.4 °F 41.1 °F 46.4 °F 100% 30.08 in 6.0 mi South 11.5 mph - N/A   Overcast
7:55 AM 46.4 °F 40.7 °F 46.4 °F 100% 30.08 in 10.0 mi South 12.7 mph 18.4 mph N/A   Overcast
8:15 AM 46.4 °F 40.7 °F 44.6 °F 93% 30.08 in 9.0 mi South 12.7 mph 17.3 mph N/A   Overcast
8:35 AM 46.4 °F 41.5 °F 46.4 °F 100% 30.07 in 7.0 mi South 10.4 mph 16.1 mph N/A   Overcast
8:55 AM 46.4 °F 40.7 °F 46.4 °F 100% 30.08 in 8.0 mi South 12.7 mph 17.3 mph N/A   Overcast
9:15 AM 46.4 °F 41.5 °F 46.4 °F 100% 30.08 in 10.0 mi South 10.4 mph 19.6 mph N/A   Overcast
9:35 AM 46.4 °F 40.4 °F 46.4 °F 100% 30.07 in 10.0 mi South 13.8 mph - N/A   Overcast
9:55 AM 46.4 °F 39.8 °F 46.4 °F 100% 30.07 in 10.0 mi South 16.1 mph 21.9 mph N/A   Overcast
10:15 AM 48.2 °F - 48.2 °F 100% 30.08 in 10.0 mi South 13.8 mph 20.7 mph N/A   Overcast
10:35 AM 48.2 °F - 48.2 °F 100% 30.08 in 10.0 mi South 13.8 mph 20.7 mph N/A   Overcast
10:55 AM 48.2 °F - 48.2 °F 100% 30.09 in 10.0 mi South 13.8 mph 20.7 mph N/A   Overcast
11:15 AM 50.0 °F - 48.2 °F 94% 30.09 in 10.0 mi South 15.0 mph - N/A   Overcast
11:35 AM 50.0 °F - 48.2 °F 94% 30.08 in 10.0 mi South 12.7 mph - N/A   Overcast
11:55 AM 50.0 °F - 48.2 °F 94% 30.08 in 10.0 mi South 13.8 mph 19.6 mph N/A   Overcast
12:15 PM 50.0 °F - 48.2 °F 94% 30.08 in 10.0 mi South 12.7 mph 18.4 mph N/A   Overcast
12:35 PM 48.2 °F - 48.2 °F 100% 30.08 in 10.0 mi South 10.4 mph - N/A   Overcast
12:55 PM 48.2 °F - 46.4 °F 93% 30.07 in 10.0 mi South 9.2 mph 16.1 mph N/A   Overcast
1:15 PM 48.2 °F - 48.2 °F 100% 30.07 in 8.0 mi South 10.4 mph 17.3 mph N/A   Overcast
1:35 PM 48.2 °F - 48.2 °F 100% 30.07 in 9.0 mi South 11.5 mph - N/A   Overcast
1:55 PM 48.2 °F - 48.2 °F 100% 30.08 in 9.0 mi South 11.5 mph 16.1 mph N/A   Overcast
2:15 PM 48.2 °F - 48.2 °F 100% 30.08 in 9.0 mi South 10.4 mph - N/A   Overcast
2:35 PM 50.0 °F - 50.0 °F 100% 30.08 in 9.0 mi South 8.1 mph - N/A   Overcast
2:55 PM 50.0 °F - 48.2 °F 94% 30.08 in 9.0 mi South 9.2 mph - N/A   Overcast
3:15 PM 50.0 °F - 50.0 °F 100% 30.06 in 5.0 mi South 11.5 mph 17.3 mph N/A   Overcast
3:35 PM 50.0 °F - 48.2 °F 94% 30.06 in 5.0 mi South 12.7 mph 17.3 mph 0.01 in   Overcast
3:55 PM 50.0 °F - 48.2 °F 94% 30.06 in 7.0 mi South 12.7 mph 18.4 mph 0.01 in   Mostly Cloudy
4:15 PM 50.0 °F - 48.2 °F 94% 30.06 in 6.0 mi South 11.5 mph - N/A   Overcast
4:35 PM 50.0 °F - 48.2 °F 94% 30.05 in 5.0 mi South 9.2 mph - 0.01 in   Overcast
4:55 PM 50.0 °F - 48.2 °F 94% 30.05 in 5.0 mi South 9.2 mph - 0.01 in   Overcast
5:15 PM 50.0 °F - 48.2 °F 94% 30.05 in 10.0 mi South 9.2 mph - 0.01 in   Overcast
5:35 PM 50.0 °F - 50.0 °F 100% 30.03 in 10.0 mi SSE 9.2 mph - 0.01 in   Overcast
5:55 PM 50.0 °F - 48.2 °F 94% 30.03 in 10.0 mi South 9.2 mph - 0.01 in   Overcast
6:15 PM 50.0 °F - 50.0 °F 100% 30.02 in 10.0 mi South 11.5 mph - 0.01 in   Overcast
6:35 PM 50.0 °F - 50.0 °F 100% 30.02 in 7.0 mi South 9.2 mph 16.1 mph 0.01 in   Overcast
6:55 PM 50.0 °F - 50.0 °F 100% 30.03 in 5.0 mi South 11.5 mph - 0.01 in   Overcast
7:15 PM 50.0 °F - 48.2 °F 94% 30.02 in 9.0 mi South 9.2 mph - 0.01 in   Overcast
7:35 PM 50.0 °F - 48.2 °F 94% 30.01 in 7.0 mi South 13.8 mph 18.4 mph 0.01 in   Overcast
7:55 PM 50.0 °F - 48.2 °F 94% 30.00 in 7.0 mi South 11.5 mph - 0.01 in   Overcast
8:15 PM 50.0 °F - 48.2 °F 94% 30.00 in 7.0 mi South 10.4 mph - 0.01 in   Overcast
8:35 PM 50.0 °F - 48.2 °F 94% 30.00 in 7.0 mi South 11.5 mph 17.3 mph 0.02 in   Overcast
8:55 PM 50.0 °F - 48.2 °F 94% 30.00 in 7.0 mi South 11.5 mph 18.4 mph 0.03 in   Overcast
9:15 PM 50.0 °F - 50.0 °F 100% 29.99 in 8.0 mi South 12.7 mph - 0.01 in   Overcast
9:35 PM 50.0 °F - 48.2 °F 94% 29.99 in 8.0 mi South 12.7 mph 17.3 mph 0.02 in   Overcast
9:55 PM 48.2 °F - 48.2 °F 100% 29.99 in 9.0 mi South 12.7 mph 16.1 mph 0.02 in   Overcast
10:15 PM 48.2 °F - 48.2 °F 100% 29.99 in 9.0 mi South 11.5 mph 20.7 mph 0.01 in   Overcast
10:35 PM 48.2 °F - 48.2 °F 100% 29.97 in 8.0 mi South 10.4 mph 16.1 mph 0.01 in   Overcast
10:55 PM 48.2 °F - 48.2 °F 100% 29.97 in 10.0 mi South 10.4 mph 17.3 mph 0.02 in   Overcast
11:15 PM 48.2 °F - 48.2 °F 100% 29.97 in 8.0 mi South 11.5 mph 17.3 mph 0.01 in   Overcast
11:35 PM 48.2 °F - 48.2 °F 100% 29.96 in 10.0 mi South 12.7 mph 18.4 mph 0.01 in   Overcast
11:55 PM 48.2 °F - 48.2 °F 100% 29.95 in 9.0 mi South 13.8 mph - 0.02 in   Overcast